Weather History for KSMF - October, 2012

Change the Weather History Date:

Monday, October 22, 2012

  Actual Average Record
Temperature  
Mean Temperature 56 °F -  
Max Temperature 62 °F 75 °F 88 °F (1959)
Min Temperature 51 °F 49 °F 39 °F (1949)
Degree Days  
Heating Degree Days 8    
Growing Degree Days 6 (Base 50)    
Moisture  
Dew Point 50 °F    
Average Humidity 84    
Maximum Humidity 100    
Minimum Humidity 53    
Precipitation  
Precipitation 0.69 in - - ()
Sea Level Pressure  
Sea Level Pressure 29.83 in    
Wind  
Wind Speed 12 mph (South)    
Max Wind Speed 20 mph    
Max Gust Speed 28 mph    
Visibility 8 miles    
Events Rain    
Averages and records for this station are not official NWS values.
T = Trace of Precipitation, MM = Missing Value Source: NWS Daily Summary

Daily Weather History Graph

Daily Weather History Graph

Search for Another Location

Airport or City:

Trip Planner

Search our weather history database for the weather conditions in past years. The results will help you decide how hot, cold, wet, or windy it might be!

Date:

Astronomy

Oct. 22, 2012 Rise Set
Actual Time 7:23 AM PDT 6:17 PM PDT
Civil Twilight 6:56 AM PDT 6:44 PM PDT
Nautical Twilight 6:25 AM PDT 7:15 PM PDT
Astronomical Twilight 5:54 AM PDT 7:46 PM PDT
Moon 2:25 PM PDT (10/22) 12:20 AM PDT (10/22)
Length of Visible Light 11h 48m
Length of Day
10h 54m
First Quarter, 57% of the Moon is Illuminated
Oct 22
First Quarter
Oct 29
Full
Nov 6
Last Quarter
Nov 13
New
Nov 20
First Quarter

Hourly Weather History & Observations

Time (PDT) Temp. Dew Point Humidity Pressure Visibility Wind Dir Wind Speed Gust Speed Precip Events Conditions
12:53 AM 53.1 °F 48.0 °F 83% 29.82 in 8.0 mi SW 8.1 mph 24.2 mph 0.01 in Rain Light Rain
1:53 AM 53.1 °F 51.1 °F 93% 29.83 in 4.0 mi SSE 8.1 mph 27.6 mph 0.12 in Rain Rain
2:53 AM 53.1 °F 52.0 °F 96% 29.81 in 5.0 mi ESE 15.0 mph - 0.18 in Rain Rain
3:53 AM 53.1 °F 51.1 °F 93% 29.78 in 6.0 mi SE 18.4 mph - 0.14 in Rain Light Rain
4:53 AM 53.6 °F 51.8 °F 94% 29.76 in 7.0 mi SE 19.6 mph 27.6 mph N/A Rain Light Rain
5:53 AM 53.1 °F 51.1 °F 93% 29.76 in 8.0 mi SSE 16.1 mph - 0.08 in Rain Light Rain
7:39 AM 51.8 °F 51.8 °F 100% 29.78 in 1.5 mi NW 8.1 mph - 0.06 in Rain Rain
7:53 AM 52.0 °F 51.1 °F 97% 29.78 in 1.5 mi Calm Calm - 0.08 in Rain Light Rain
8:35 AM 51.8 °F 51.8 °F 100% 29.80 in 1.5 mi NNE 4.6 mph - 0.03 in Rain Light Rain
8:53 AM 52.0 °F 51.1 °F 97% 29.80 in 1.5 mi NE 6.9 mph - 0.06 in Rain Light Rain
9:42 AM 53.6 °F 51.8 °F 94% 29.80 in 1.5 mi SE 12.7 mph - 0.01 in   Overcast
9:49 AM 53.6 °F 51.8 °F 94% 29.80 in 7.0 mi SSE 11.5 mph - 0.01 in   Overcast
9:53 AM 53.1 °F 52.0 °F 96% 29.81 in 7.0 mi SSE 11.5 mph - 0.01 in   Overcast
10:53 AM 55.0 °F 52.0 °F 89% 29.83 in 10.0 mi SSE 17.3 mph - 0.01 in   Mostly Cloudy
11:15 AM 57.2 °F 53.6 °F 88% 29.83 in 10.0 mi SSE 13.8 mph - N/A   Mostly Cloudy
11:53 AM 55.9 °F 53.1 °F 90% 29.84 in 10.0 mi SSE 16.1 mph - N/A   Mostly Cloudy
12:37 PM 57.2 °F 53.6 °F 88% 29.85 in 10.0 mi South 16.1 mph - N/A   Mostly Cloudy
12:53 PM 59.0 °F 54.0 °F 83% 29.85 in 10.0 mi South 13.8 mph - N/A   Mostly Cloudy
1:18 PM 60.8 °F 53.6 °F 77% 29.84 in 10.0 mi South 15.0 mph 20.7 mph N/A   Mostly Cloudy
1:53 PM 62.1 °F 53.1 °F 72% 29.83 in 10.0 mi SSE 15.0 mph - N/A   Mostly Cloudy
2:53 PM 60.1 °F 52.0 °F 75% 29.82 in 10.0 mi SSE 18.4 mph 26.5 mph N/A   Mostly Cloudy
3:53 PM 61.0 °F 46.9 °F 60% 29.83 in 10.0 mi SW 12.7 mph - N/A   Mostly Cloudy
4:53 PM 62.1 °F 45.0 °F 53% 29.84 in 10.0 mi SW 10.4 mph - N/A   Partly Cloudy
6:53 PM 57.0 °F 46.9 °F 69% 29.86 in 10.0 mi SSW 11.5 mph - 0.00 in   Overcast
7:53 PM 55.9 °F 46.9 °F 72% 29.88 in 10.0 mi SSW 11.5 mph - N/A   Mostly Cloudy
8:53 PM 55.9 °F 45.0 °F 67% 29.88 in 10.0 mi South 12.7 mph - N/A   Scattered Clouds
9:53 PM 55.9 °F 46.9 °F 72% 29.91 in 10.0 mi South 11.5 mph - N/A   Overcast
10:53 PM 55.0 °F 46.9 °F 74% 29.90 in 10.0 mi SSW 8.1 mph - 0.00 in Rain Light Rain
11:53 PM 54.0 °F 48.0 °F 80% 29.91 in 10.0 mi SSW 16.1 mph 23.0 mph N/A   Overcast